Hourly Data Report for October 16, 2015

All times are specified in Local Standard Time (LST). Add 1 hour to adjust for Daylight Saving Time where and when it is observed.

PANGNIRTUNG
NUNAVUT

66°08'36.300" N
65°42'40.500" W
22.60 m
2403049
71826
WXP

Download Data

Hourly Data (October 2015)
Hourly Data Report for October 16, 2015
Temp Definition
°C
Dew Point Temp Definition
°C
Rel Hum Definition
%
Wind Dir Definition
10's deg

Wind Spd Definition
km/h
Visibility Definition
km
Stn Press Definition
kPa
Hmdx Definition


Wind Chill Definition


Weather Definition


TIME
00:00 -5.4 -8.8 77 25 16   99.81   -11 LegendNANA
01:00 -5.3 -9.5 72 26 14   99.84   -11 LegendNANA
02:00 -5.3 -9.8 70 28 11   99.86   -10 LegendNANA
03:00 -5.6 -9.9 71 25 17   99.87   -12 LegendNANA
04:00 -6.0 -10.7 70 24 14   99.90   -12 LegendNANA
05:00 -5.2 -10.5 66 29 15   99.94   -11 LegendNANA
06:00 -5.6 -10.5 68 28 16   99.94   -12 LegendNANA
07:00 -5.1 -10.2 67 32 16   99.97   -11 LegendNANA
08:00 -5.8 -9.8 73 27 11   99.99   -11 LegendNANA
09:00 -5.8 -10.0 72 31 9   99.98   -10 LegendNANA
10:00 -5.2 -9.3 73 27 9   99.97   -9 LegendNANA
11:00 -5.0 -9.5 71 26 7   99.95   -8 LegendNANA
12:00 -4.9 -8.5 76 32 18   99.95   -11 LegendNANA
13:00 -4.5 -8.7 72 31 18   99.98   -11 LegendNANA
14:00 -5.9 -10.2 72 26 7   100.01   -9 LegendNANA
15:00 -5.3 -9.9 70 27 17   100.03   -11 LegendNANA
16:00 -6.1 -10.0 74 28 17   100.05   -12 LegendNANA
17:00 -5.9 -10.5 70 31 16   100.09   -12 LegendNANA
18:00 -6.4 -11.3 68 24 8   100.11   -10 LegendNANA
19:00 -6.7 -11.4 69 30 11   100.11   -12 LegendNANA
20:00 -6.6 -11.3 69 30 13   100.10   -12 LegendNANA
21:00 -7.8 -12.2 71 11 6   100.10   -11 LegendNANA
22:00 -8.4 -12.3 73 13 5   100.09   -11 LegendNANA
23:00 -7.6 -11.7 73 32 13   100.07   -13 LegendNANA

Notes on Data Quality.

Legend

  • E = Estimated
  • M = Missing
  • NA = Not Available
  • ‡ = Partner data that is not subject to review by the National Climate Archives
Date modified: